Date String (YYYY-MM-DD hh:mm:ss) UTC,Instrument flags,Ambient pressure (hPa),Sample flow (lpm),Bypass flow (lpm),Sample temperature (°C),Ambient temperature (°C),ASC tube jacket temperature (°C),LED temperature (°C),Box temperature (°C),Sample RH (%),Span deviation,Mass concentration (μg/m³),Mass concentration (μg/m³),Mass concentration (μg/m³)
DateTimeUTC,F1_M11,P_M11,Q1_M11,Q2_M11,T1_M11,T2_M11,T3_M11,T4_M11,T5_M11,U1_M11,ZSPAN_M11,X2_M11,X0_M11,X1_M11
2022-06-03 22:00:00,,0823.0,5.00,0.00,29.4,28.4,00.0,38.2,31.4,26.2,-000.3,0007.42,0017.46,0006.63
2022-06-03 22:01:00,,0822.9,5.01,0.00,29.4,28.5,00.0,38.2,31.4,26.7,-000.4,0007.77,0016.43,0006.96
2022-06-03 22:02:00,,0822.9,5.00,0.00,29.5,28.6,00.0,38.2,31.4,26.7,-000.1,0007.99,0015.57,0007.20
2022-06-03 22:03:00,,0822.9,5.00,0.00,29.5,28.7,00.0,38.2,31.5,26.0,0000.1,0008.16,0016.50,0007.38
2022-06-03 22:04:00,,0822.9,4.99,0.00,29.5,28.8,00.0,38.3,31.6,26.8,0000.1,0008.28,0017.41,0007.53
2022-06-03 22:05:00,,0822.9,5.00,0.00,29.6,28.8,00.0,38.3,31.6,26.6,-000.1,0008.42,0017.83,0007.63
2022-06-03 22:06:00,,0823.0,5.00,0.00,29.6,28.9,00.0,38.3,31.6,26.5,-000.1,0008.53,0018.66,0007.72
2022-06-03 22:07:00,,0822.8,5.00,0.00,29.6,28.7,00.0,38.3,31.6,26.7,0000.0,0008.66,0019.24,0007.78
2022-06-03 22:08:00,,0822.9,5.01,0.00,29.6,27.9,00.0,38.3,31.4,26.4,-000.1,0008.77,0019.11,0007.86
2022-06-03 22:09:00,,0822.7,4.99,0.00,29.5,27.2,00.0,38.2,31.2,27.6,-000.3,0008.82,0019.65,0007.89
2022-06-03 22:10:00,,0822.7,5.01,0.00,29.4,27.0,00.0,38.2,31.1,28.0,-000.4,0008.86,0019.44,0007.86
2022-06-03 22:11:00,,0822.7,4.99,0.00,29.3,27.1,00.0,38.2,31.1,26.6,-000.6,0008.85,0018.87,0007.81
2022-06-03 22:12:00,,0822.7,4.99,0.00,29.3,27.2,00.0,38.2,31.1,26.8,-000.4,0008.81,0018.72,0007.75
2022-06-03 22:13:00,,0822.7,4.99,0.00,29.3,27.4,00.0,38.2,31.1,27.1,-000.6,0008.85,0018.93,0007.76
2022-06-03 22:14:00,,0822.6,5.02,0.00,29.3,27.6,00.0,38.2,31.1,27.7,-000.3,0008.93,0018.59,0007.80
2022-06-03 22:15:00,,0822.7,4.99,0.00,29.3,27.8,00.0,38.2,31.2,27.2,-000.3,0008.97,0017.82,0007.82
2022-06-03 22:16:00,,0822.7,5.01,0.00,29.3,27.9,00.0,38.2,31.2,26.6,-000.1,0009.03,0017.64,0007.89
2022-06-03 22:17:00,,0822.7,5.00,0.00,29.3,28.1,00.0,38.2,31.3,26.6,-000.2,0009.00,0017.17,0007.88
2022-06-03 22:18:00,,0822.7,5.00,0.00,29.4,28.2,00.0,38.2,31.3,26.9,-000.1,0009.01,0017.96,0007.90
2022-06-03 22:19:00,,0822.7,5.00,0.00,29.4,28.3,00.0,38.2,31.4,27.6,-000.0,0008.87,0017.38,0007.84
2022-06-03 22:20:00,,0822.8,5.01,0.00,29.4,28.4,00.0,38.2,31.4,28.2,-000.1,0008.80,0017.74,0007.79
2022-06-03 22:21:00,,0822.8,4.99,0.00,29.5,28.5,00.0,38.2,31.4,27.5,0000.2,0008.67,0017.19,0007.71
2022-06-03 22:22:00,,0822.7,4.99,0.00,29.5,28.6,00.0,38.3,31.5,26.6,0000.7,0008.40,0016.88,0007.50
2022-06-03 22:23:00,,0822.7,5.00,0.00,29.5,28.7,00.0,38.3,31.5,25.8,0000.7,0008.09,0017.55,0007.20
2022-06-03 22:24:00,,0822.8,5.00,0.00,29.6,28.8,00.0,38.3,31.6,25.9,0000.9,0007.74,0017.79,0006.89
2022-06-03 22:25:00,,0822.7,4.99,0.00,29.6,28.8,00.0,38.3,31.6,26.1,0000.7,0007.38,0018.36,0006.56
2022-06-03 22:26:00,,0822.8,5.00,0.00,29.6,28.9,00.0,38.4,31.7,26.2,0000.6,0007.10,0018.47,0006.27
2022-06-03 22:27:00,,0822.8,5.00,0.00,29.7,29.0,00.0,38.4,31.7,26.3,0000.4,0006.79,0017.67,0005.94
2022-06-03 22:28:00,,0822.8,5.00,0.00,29.7,29.0,00.0,38.4,31.7,26.5,0000.7,0006.54,0016.91,0005.64
2022-06-03 22:29:00,,0822.8,4.98,0.00,29.7,28.2,00.0,38.4,31.5,26.6,0000.2,0006.23,0015.97,0005.35
2022-06-03 22:30:00,,0822.8,5.00,0.00,29.6,27.7,00.0,38.3,31.4,25.0,0000.0,0006.06,0015.54,0005.12
2022-06-03 22:31:00,,0822.9,5.01,0.00,29.6,27.6,00.0,38.3,31.3,24.4,0000.0,0005.88,0014.84,0004.93
2022-06-03 22:32:00,,0822.9,5.00,0.00,29.5,27.6,00.0,38.3,31.3,24.0,0000.0,0005.78,0014.71,0004.81
2022-06-03 22:33:00,,0822.9,4.99,0.00,29.5,27.7,00.0,38.3,31.3,24.0,0000.0,0005.76,0015.70,0004.77
2022-06-03 22:34:00,,0823.0,5.01,0.00,29.5,27.9,00.0,38.3,31.3,24.5,0000.0,0005.80,0015.13,0004.76
2022-06-03 22:35:00,,0823.0,5.00,0.00,29.5,28.0,00.0,38.3,31.4,24.0,0000.0,0005.83,0013.89,0004.82
2022-06-03 22:36:00,,0822.9,4.99,0.00,29.5,28.2,00.0,38.3,31.4,24.5,0000.0,0005.89,0013.16,0004.89
2022-06-03 22:37:00,,0823.0,5.01,0.00,29.5,28.3,00.0,38.4,31.5,24.3,0000.0,0005.95,0012.72,0004.96
2022-06-03 22:38:00,,0823.0,5.01,0.00,29.6,28.4,00.0,38.4,31.5,24.3,-001.0,0006.06,0012.81,0005.04
2022-06-03 22:39:00,,0823.1,5.01,0.00,29.6,28.6,00.0,38.4,31.5,25.0,-001.9,0006.12,0013.17,0005.10
2022-06-03 22:40:00,,0823.1,4.99,0.00,29.6,28.7,00.0,38.4,31.6,24.6,-002.0,0006.27,0014.01,0005.19
2022-06-03 22:41:00,,0823.1,5.00,0.00,29.6,28.7,00.0,38.4,31.6,24.9,-000.6,0006.35,0014.51,0005.25
2022-06-03 22:42:00,,0823.1,5.00,0.00,29.7,28.8,00.0,38.4,31.7,24.4,-000.7,0006.40,0015.20,0005.29
2022-06-03 22:43:00,,0823.1,4.99,0.00,29.7,28.9,00.0,38.5,31.7,24.4,0000.0,0006.45,0015.61,0005.30
2022-06-03 22:44:00,,0823.1,4.99,0.00,29.7,29.0,00.0,38.5,31.7,24.6,0000.0,0006.50,0015.11,0005.32
2022-06-03 22:45:00,,0823.1,5.00,0.00,29.8,28.7,00.0,38.5,31.7,24.8,0000.3,0006.53,0015.25,0005.35
2022-06-03 22:46:00,,0823.1,5.00,0.00,29.7,27.8,00.0,38.4,31.4,24.9,0001.4,0006.52,0015.33,0005.32
2022-06-03 22:47:00,,0823.1,5.00,0.00,29.6,27.1,00.0,38.3,31.3,24.8,0001.4,0006.52,0015.36,0005.32
2022-06-03 22:48:00,,0823.1,5.00,0.00,29.5,27.0,00.0,38.3,31.2,25.0,0001.6,0006.54,0015.41,0005.33
2022-06-03 22:49:00,,0823.0,5.00,0.00,29.4,27.1,00.0,38.3,31.1,24.5,0001.7,0006.61,0015.81,0005.37
2022-06-03 22:50:00,,0823.0,4.99,0.00,29.4,27.2,00.0,38.3,31.2,24.8,0001.5,0006.64,0016.64,0005.42
2022-06-03 22:51:00,,0823.0,5.01,0.00,29.4,27.4,00.0,38.3,31.2,25.3,0001.6,0006.62,0016.37,0005.43
2022-06-03 22:52:00,,0822.9,4.99,0.00,29.4,27.6,00.0,38.3,31.2,25.6,0001.5,0006.57,0016.60,0005.42
2022-06-03 22:53:00,,0822.9,4.99,0.00,29.4,27.8,00.0,38.3,31.3,24.9,0001.3,0006.61,0016.02,0005.45
2022-06-03 22:54:00,,0822.9,4.99,0.00,29.4,28.0,00.0,38.3,31.3,24.9,0001.0,0006.61,0015.63,0005.45
2022-06-03 22:55:00,,0822.8,5.01,0.00,29.4,28.1,00.0,38.3,31.3,25.4,0001.0,0006.58,0015.50,0005.44
2022-06-03 22:56:00,,0822.7,5.00,0.00,29.4,28.3,00.0,38.3,31.4,25.3,0000.4,0006.52,0014.99,0005.44
2022-06-03 22:57:00,,0822.7,5.01,0.00,29.5,28.4,00.0,38.3,31.4,25.6,-000.0,0006.56,0015.69,0005.47
2022-06-03 22:58:00,,0822.7,4.99,0.00,29.5,28.5,00.0,38.3,31.5,25.6,-000.3,0006.72,0017.03,0005.55
2022-06-03 22:59:00,,0822.7,4.99,0.00,29.5,28.6,00.0,38.3,31.5,26.1,-000.3,0006.77,0017.56,0005.58
